Simultaneous Nadir Overpasses (SNOs) Predictions

Prediction of SNOs between METOP-B and TERRA Satellite Orbit:

Table of predicted SNOs for the next 14.0 days since TLE Epoch: 4/30/2022
Index Date (METOP-B) Time (METOP-B) Lat,Lon (METOP-B) SZA (METOP-B ) Date (TERRA) Time (TERRA) Lat,Lon (TERRA) SZA (TERRA ) Distance(km) Time Diff (sec)
1 04/30/2022 06:37:02 81.19, 122.41 68.76 04/30/2022 06:37:34 81.19, 122.25 68.76 2.66 32
2 04/30/2022 07:27:41 -81.21, -69.69 111.18 04/30/2022 07:27:00 -81.20, -69.86 111.22 3.04 41
3 05/03/2022 02:11:24 81.18,-171.45 67.90 05/03/2022 02:11:44 81.19,-171.29 67.93 2.73 20
4 05/03/2022 03:02:03 -81.20, -3.52 112.04 05/03/2022 03:01:10 -81.21, -3.38 112.05 2.45 53
5 05/05/2022 21:45:44 81.18,-104.99 67.10 05/05/2022 21:45:53 81.18,-105.00 67.10 0.65 9
6 05/05/2022 22:36:23 -81.20, 62.96 112.83 05/05/2022 22:35:19 -81.20, 62.93 112.87 0.60 64
7 05/08/2022 16:29:25 -81.17, 153.74 113.71 05/08/2022 16:30:36 -81.18, 153.83 113.66 1.77 71
8 05/08/2022 17:20:05 81.18, -38.61 66.33 05/08/2022 17:20:02 81.18, -38.52 66.34 1.62 3
9 05/11/2022 12:03:46 -81.17,-139.92 114.45 05/11/2022 12:04:45 -81.17,-139.82 114.41 1.77 59



Historial Predications of SNOs between METOP-B and TERRA
